| time (UTC) | temp F | wind direction | speed MPH | gust MPH | rain 1hr in | rain 24hr in | rain mn in | humidity % | barometer mb |
| 20260906191422 | 69 | 317 | 2.0 | 2.0 | 0.00 | 0.00 | 0.00 | 62 | 1018.1 |
| 20260906190856 | 69 | 353 | 2.0 | 4.0 | 0.00 | 0.00 | 0.00 | 62 | 1018.1 |
| 20260906190356 | 69 | 50 | 4.0 | 5.0 | 0.00 | 0.00 | 0.00 | 62 | 1018.2 |
| 20260906185411 | 70 | 139 | 2.0 | 3.0 | 0.00 | 0.00 | 0.00 | 61 | 1018.1 |
| 20260906184855 | 70 | 187 | 4.0 | 4.0 | 0.00 | 0.00 | 0.00 | 60 | 1018.0 |
| 20260906184355 | 70 | 156 | 2.0 | 3.0 | 0.00 | 0.00 | 0.00 | 60 | 1018.0 |
| 20260906183410 | 71 | 159 | 4.0 | 6.0 | 0.00 | 0.00 | 0.00 | 59 | 1018.2 |
| 20260906182854 | 71 | 139 | 3.0 | 5.0 | 0.00 | 0.00 | 0.00 | 58 | 1018.1 |
| 20260906182409 | 71 | 139 | 0.0 | 1.0 | 0.00 | 0.00 | 0.00 | 57 | 1018.1 |
| 20260906181414 | 72 | 139 | 2.0 | 2.0 | 0.00 | 0.00 | 0.00 | 56 | 1018.2 |
| 20260906180858 | 72 | 140 | 2.0 | 4.0 | 0.00 | 0.00 | 0.00 | 53 | 1018.2 |
| 20260906180357 | 73 | 129 | 4.0 | 4.0 | 0.00 | 0.00 | 0.00 | 52 | 1018.3 |
| 20260906175426 | 73 | 152 | 3.0 | 4.0 | 0.00 | 0.00 | 0.00 | 51 | 1018.6 |
| 20260906174910 | 74 | 197 | 1.0 | 2.0 | 0.00 | 0.00 | 0.00 | 51 | 1018.5 |
| 20260906174400 | 74 | 196 | 1.0 | 2.0 | 0.00 | 0.00 | 0.00 | 50 | 1018.7 |
| 20260906173415 | 75 | 221 | 2.0 | 4.0 | 0.00 | 0.00 | 0.00 | 49 | 1019.0 |
| 20260906172904 | 76 | 207 | 3.0 | 4.0 | 0.00 | 0.00 | 0.00 | 48 | 1018.8 |
| 20260906172404 | 76 | 229 | 2.0 | 3.0 | 0.00 | 0.00 | 0.00 | 47 | 1018.8 |
| 20260906171403 | 77 | 169 | 4.0 | 7.0 | 0.00 | 0.00 | 0.00 | 47 | 1019.2 |
| 20260906170903 | 78 | 90 | 2.0 | 4.0 | 0.00 | 0.00 | 0.00 | 47 | 1019.0 |
| 20260906170402 | 78 | 114 | 3.0 | 5.0 | 0.00 | 0.00 | 0.00 | 47 | 1019.0 |
| 20260906165417 | 77 | 146 | 4.0 | 4.0 | 0.00 | 0.00 | 0.00 | 48 | 1018.9 |
| 20260906164900 | 77 | 84 | 3.0 | 5.0 | 0.00 | 0.00 | 0.00 | 44 | 1019.1 |
| 20260906164359 | 78 | 127 | 4.0 | 10.0 | 0.00 | 0.00 | 0.00 | 43 | 1019.1 |
| 20260906163414 | 79 | 238 | 2.0 | 3.0 | 0.00 | 0.00 | 0.00 | 41 | 1019.3 |
| 20260906162858 | 80 | 231 | 3.0 | 5.0 | 0.00 | 0.00 | 0.00 | 40 | 1019.4 |
| 20260906162358 | 80 | 238 | 2.0 | 2.0 | 0.00 | 0.00 | 0.00 | 40 | 1019.4 |
| 20260906161412 | 80 | 233 | 3.0 | 8.0 | 0.00 | 0.00 | 0.00 | 40 | 1019.5 |
| 20260906160857 | 81 | 211 | 2.0 | 4.0 | 0.00 | 0.00 | 0.00 | 41 | 1019.3 |
| 20260906160354 | 80 | 215 | 4.0 | 8.0 | 0.00 | 0.00 | 0.00 | 40 | 1019.5 |
| 20260906155407 | 80 | 240 | 4.0 | 6.0 | 0.00 | 0.00 | 0.00 | 39 | 1019.5 |
| 20260906154907 | 78 | 228 | 3.0 | 4.0 | 0.00 | 0.00 | 0.00 | 40 | 1019.4 |
| 20260906154406 | 78 | 254 | 5.0 | 7.0 | 0.00 | 0.00 | 0.00 | 40 | 1019.7 |
| 20260906153411 | 79 | 294 | 6.0 | 8.0 | 0.00 | 0.00 | 0.00 | 39 | 1019.7 |
| 20260906152901 | 79 | 293 | 2.0 | 4.0 | 0.00 | 0.00 | 0.00 | 41 | 1019.6 |
| 20260906152400 | 79 | 301 | 3.0 | 4.0 | 0.00 | 0.00 | 0.00 | 41 | 1019.9 |
| 20260906151415 | 81 | 256 | 2.0 | 3.0 | 0.00 | 0.00 | 0.00 | 37 | 1020.0 |
| 20260906150900 | 82 | 246 | 4.0 | 4.0 | 0.00 | 0.00 | 0.00 | 32 | 1020.0 |
| 20260906150359 | 82 | 239 | 4.0 | 5.0 | 0.00 | 0.00 | 0.00 | 31 | 1019.8 |
| 20260906145411 | 84 | 222 | 3.0 | 4.0 | 0.00 | 0.00 | 0.00 | 30 | 1020.0 |
| 20260906144856 | 83 | 235 | 4.0 | 6.0 | 0.00 | 0.00 | 0.00 | 30 | 1019.9 |
| 20260906144355 | 83 | 218 | 8.0 | 12.0 | 0.00 | 0.00 | 0.00 | 30 | 1019.8 |
| 20260906143410 | 85 | 167 | 2.0 | 4.0 | 0.00 | 0.00 | 0.00 | 28 | 1020.0 |
| 20260906142855 | 86 | 170 | 3.0 | 4.0 | 0.00 | 0.00 | 0.00 | 25 | 1019.9 |
| 20260906142354 | 86 | 178 | 2.0 | 4.0 | 0.00 | 0.00 | 0.00 | 24 | 1020.1 |
| 20260906141409 | 84 | 181 | 5.0 | 8.0 | 0.00 | 0.00 | 0.00 | 25 | 1020.1 |
| 20260906140853 | 84 | 234 | 2.0 | 4.0 | 0.00 | 0.00 | 0.00 | 26 | 1020.3 |
| 20260906140353 | 84 | 228 | 1.0 | 2.0 | 0.00 | 0.00 | 0.00 | 26 | 1020.3 |
| 20260906135423 | 83 | 233 | 5.0 | 6.0 | 0.00 | 0.00 | 0.00 | 26 | 1020.5 |
| 20260906134858 | 83 | 266 | 4.0 | 10.0 | 0.00 | 0.00 | 0.00 | 25 | 1020.5 |
| 20260906134357 | 84 | 264 | 4.0 | 8.0 | 0.00 | 0.00 | 0.00 | 25 | 1020.4 |
| 20260906133412 | 83 | 246 | 2.0 | 4.0 | 0.00 | 0.00 | 0.00 | 28 | 1020.7 |
| 20260906132902 | 82 | 135 | 4.0 | 6.0 | 0.00 | 0.00 | 0.00 | 29 | 1020.6 |
| 20260906132401 | 82 | 13 | 2.0 | 3.0 | 0.00 | 0.00 | 0.00 | 30 | 1020.8 |
| 20260906131401 | 81 | 71 | 3.0 | 5.0 | 0.00 | 0.00 | 0.00 | 32 | 1020.8 |
| 20260906130901 | 81 | 114 | 5.0 | 8.0 | 0.00 | 0.00 | 0.00 | 30 | 1021.1 |
| 20260906130415 | 81 | 216 | 4.0 | 5.0 | 0.00 | 0.00 | 0.00 | 31 | 1021.0 |
| 20260906125405 | 81 | 227 | 3.0 | 4.0 | 0.00 | 0.00 | 0.00 | 34 | 1021.4 |
| 20260906124905 | 81 | 220 | 3.0 | 4.0 | 0.00 | 0.00 | 0.00 | 35 | 1021.3 |
| 20260906124404 | 81 | 210 | 5.0 | 8.0 | 0.00 | 0.00 | 0.00 | 33 | 1021.3 |
| 20260906123424 | 80 | 216 | 7.0 | 9.0 | 0.00 | 0.00 | 0.00 | 32 | 1021.2 |
| 20260906122913 | 81 | 244 | 2.0 | 4.0 | 0.00 | 0.00 | 0.00 | 33 | 1021.2 |
| 20260906122403 | 81 | 240 | 5.0 | 8.0 | 0.00 | 0.00 | 0.00 | 34 | 1021.5 |
| 20260906121402 | 81 | 198 | 4.0 | 6.0 | 0.00 | 0.00 | 0.00 | 36 | 1021.5 |
| 20260906120902 | 80 | 154 | 3.0 | 4.0 | 0.00 | 0.00 | 0.00 | 39 | 1021.8 |
| 20260906120402 | 80 | 181 | 5.0 | 8.0 | 0.00 | 0.00 | 0.00 | 40 | 1021.7 |
| 20260906115416 | 80 | 208 | 3.0 | 4.0 | 0.00 | 0.00 | 0.00 | 39 | 1021.7 |
| 20260906114906 | 81 | 195 | 4.0 | 6.0 | 0.00 | 0.00 | 0.00 | 39 | 1021.6 |
| 20260906114356 | 80 | 261 | 3.0 | 4.0 | 0.00 | 0.00 | 0.00 | 40 | 1021.6 |
| 20260906113410 | 79 | 227 | 6.0 | 8.0 | 0.00 | 0.00 | 0.00 | 39 | 1021.6 |
| 20260906112854 | 80 | 225 | 5.0 | 9.0 | 0.00 | 0.00 | 0.00 | 37 | 1021.7 |
| 20260906112354 | 80 | 231 | 2.0 | 5.0 | 0.00 | 0.00 | 0.00 | 36 | 1021.6 |
| 20260906111423 | 80 | 211 | 8.0 | 10.0 | 0.00 | 0.00 | 0.00 | 36 | 1021.6 |
| 20260906110913 | 80 | 190 | 4.0 | 5.0 | 0.00 | 0.00 | 0.00 | 40 | 1021.5 |
| 20260906110402 | 80 | 195 | 2.0 | 3.0 | 0.00 | 0.00 | 0.00 | 40 | 1021.7 |
| 20260906105402 | 79 | 181 | 2.0 | 4.0 | 0.00 | 0.00 | 0.00 | 41 | 1021.8 |
| 20260906104902 | 79 | 193 | 3.0 | 5.0 | 0.00 | 0.00 | 0.00 | 42 | 1021.9 |
| 20260906103916 | 78 | 340 | 2.0 | 4.0 | 0.00 | 0.00 | 0.00 | 42 | 1021.8 |
| 20260906103406 | 78 | 304 | 3.0 | 6.0 | 0.00 | 0.00 | 0.00 | 43 | 1022.1 |
| 20260906102905 | 78 | 258 | 4.0 | 5.0 | 0.00 | 0.00 | 0.00 | 44 | 1022.1 |
| 20260906102355 | 78 | 295 | 3.0 | 4.0 | 0.00 | 0.00 | 0.00 | 47 | 1022.1 |
| 20260906101855 | 77 | 323 | 3.0 | 4.0 | 0.00 | 0.00 | 0.00 | 48 | 1022.3 |
| 20260906101354 | 77 | 148 | 4.0 | 6.0 | 0.00 | 0.00 | 0.00 | 46 | 1022.2 |
| 20260906100854 | 77 | 204 | 3.0 | 4.0 | 0.00 | 0.00 | 0.00 | 50 | 1022.0 |
| 20260906100353 | 77 | 187 | 2.0 | 4.0 | 0.00 | 0.00 | 0.00 | 50 | 1022.1 |
| 20260906095853 | 77 | 192 | 2.0 | 3.0 | 0.00 | 0.00 | 0.00 | 51 | 1022.3 |
| 20260906095353 | 76 | 200 | 4.0 | 5.0 | 0.00 | 0.00 | 0.00 | 51 | 1022.1 |
| 20260906094853 | 75 | 196 | 4.0 | 6.0 | 0.00 | 0.00 | 0.00 | 51 | 1022.3 |
| 20260906094353 | 74 | 212 | 3.0 | 6.0 | 0.00 | 0.00 | 0.00 | 52 | 1022.2 |
| 20260906093852 | 74 | 234 | 3.0 | 4.0 | 0.00 | 0.00 | 0.00 | 52 | 1022.3 |
| 20260906093406 | 74 | 224 | 2.0 | 4.0 | 0.00 | 0.00 | 0.00 | 54 | 1022.4 |
| 20260906092906 | 73 | 227 | 7.0 | 8.0 | 0.00 | 0.00 | 0.00 | 52 | 1022.4 |
| 20260906092406 | 73 | 200 | 2.0 | 2.0 | 0.00 | 0.00 | 0.00 | 53 | 1022.5 |
| 20260906091905 | 74 | 220 | 4.0 | 6.0 | 0.00 | 0.00 | 0.00 | 52 | 1022.4 |
| 20260906091404 | 74 | 210 | 2.0 | 2.0 | 0.00 | 0.00 | 0.00 | 53 | 1022.5 |
| 20260906090904 | 73 | 208 | 2.0 | 3.0 | 0.00 | 0.00 | 0.00 | 54 | 1022.4 |
| 20260906090404 | 72 | 177 | 2.0 | 2.0 | 0.00 | 0.00 | 0.00 | 55 | 1022.5 |
| 20260906085903 | 72 | 163 | 6.0 | 8.0 | 0.00 | 0.00 | 0.00 | 59 | 1022.4 |
| 20260906085403 | 72 | 216 | 4.0 | 6.0 | 0.00 | 0.00 | 0.00 | 61 | 1022.6 |
| 20260906084903 | 70 | 199 | 1.0 | 2.0 | 0.00 | 0.00 | 0.00 | 62 | 1022.7 |
| 20260906084402 | 70 | 188 | 4.0 | 10.0 | 0.00 | 0.00 | 0.00 | 61 | 1022.5 |
| 20260906083902 | 70 | 83 | 3.0 | 6.0 | 0.00 | 0.00 | 0.00 | 62 | 1022.6 |
| 20260906083402 | 70 | 89 | 2.0 | 3.0 | 0.00 | 0.00 | 0.00 | 62 | 1022.7 |
| 20260906082901 | 69 | 254 | 3.0 | 5.0 | 0.00 | 0.00 | 0.00 | 62 | 1022.5 |
| 20260906082401 | 70 | 172 | 4.0 | 8.0 | 0.00 | 0.00 | 0.00 | 62 | 1022.5 |
| 20260906081900 | 69 | 120 | 4.0 | 4.0 | 0.00 | 0.00 | 0.00 | 62 | 1022.8 |
| 20260906081400 | 69 | 69 | 4.0 | 7.0 | 0.00 | 0.00 | 0.00 | 61 | 1022.9 |
| 20260906080914 | 69 | 157 | 4.0 | 5.0 | 0.00 | 0.00 | 0.00 | 62 | 1022.8 |
| 20260906080404 | 69 | 197 | 2.0 | 4.0 | 0.00 | 0.00 | 0.00 | 63 | 1022.8 |
| 20260906075903 | 69 | 178 | 2.0 | 4.0 | 0.00 | 0.00 | 0.00 | 63 | 1022.6 |
| 20260906075403 | 68 | 177 | 2.0 | 4.0 | 0.00 | 0.00 | 0.00 | 63 | 1022.9 |
| 20260906074852 | 68 | 139 | 2.0 | 4.0 | 0.00 | 0.00 | 0.00 | 63 | 1022.6 |
| 20260906074407 | 68 | 180 | 2.0 | 3.0 | 0.00 | 0.00 | 0.00 | 62 | 1022.7 |
| 20260906073857 | 69 | 180 | 0.0 | 0.0 | 0.00 | 0.00 | 0.00 | 62 | 1022.9 |
| 20260906073356 | 69 | 180 | 0.0 | 0.0 | 0.00 | 0.00 | 0.00 | 62 | 1022.9 |
| 20260906072856 | 69 | 180 | 0.0 | 0.0 | 0.00 | 0.00 | 0.00 | 65 | 1023.0 |
| 20260906072355 | 67 | 180 | 0.0 | 0.0 | 0.00 | 0.00 | 0.00 | 69 | 1023.2 |
| 20260906071855 | 65 | 180 | 0.0 | 0.0 | 0.00 | 0.00 | 0.00 | 70 | 1023.2 |
| 20260906071354 | 63 | 180 | 0.0 | 0.0 | 0.00 | 0.00 | 0.00 | 75 | 1023.1 |
| 20260906070854 | 62 | 180 | 0.0 | 0.0 | 0.00 | 0.00 | 0.00 | 75 | 1023.3 |
| 20260906070353 | 62 | 180 | 0.0 | 0.0 | 0.00 | 0.00 | 0.00 | 76 | 1023.2 |
| 20260906065853 | 61 | 180 | 0.0 | 0.0 | 0.00 | 0.00 | 0.00 | 77 | 1023.3 |
| 20260906065352 | 61 | 180 | 0.0 | 0.0 | 0.00 | 0.00 | 0.00 | 80 | 1023.4 |
| 20260906064852 | 60 | 180 | 0.0 | 0.0 | 0.00 | 0.00 | 0.00 | 81 | 1023.4 |
| 20260906064407 | 59 | 180 | 0.0 | 0.0 | 0.00 | 0.00 | 0.00 | 81 | 1023.4 |
| 20260906063906 | 59 | 180 | 0.0 | 0.0 | 0.00 | 0.00 | 0.00 | 81 | 1023.2 |
| 20260906063405 | 59 | 180 | 0.0 | 0.0 | 0.00 | 0.00 | 0.00 | 82 | 1023.5 |
| 20260906062905 | 58 | 180 | 0.0 | 0.0 | 0.00 | 0.00 | 0.00 | 82 | 1023.2 |
| 20260906062405 | 58 | 180 | 0.0 | 0.0 | 0.00 | 0.00 | 0.00 | 83 | 1023.4 |
| 20260906061905 | 58 | 180 | 0.0 | 0.0 | 0.00 | 0.00 | 0.00 | 83 | 1023.4 |
| 20260906061353 | 58 | 180 | 0.0 | 0.0 | 0.00 | 0.00 | 0.00 | 84 | 1023.3 |
| 20260906060853 | 57 | 180 | 0.0 | 0.0 | 0.00 | 0.00 | 0.00 | 85 | 1023.4 |
| 20260906060407 | 57 | 180 | 0.0 | 0.0 | 0.00 | 0.00 | 0.00 | 85 | 1023.4 |
| 20260906055857 | 57 | 180 | 0.0 | 0.0 | 0.00 | 0.00 | 0.00 | 85 | 1023.3 |
| 20260906055356 | 57 | 180 | 0.0 | 0.0 | 0.00 | 0.00 | 0.00 | 86 | 1023.6 |
| 20260906054855 | 57 | 180 | 0.0 | 0.0 | 0.00 | 0.00 | 0.00 | 86 | 1023.3 |
| 20260906054355 | 56 | 180 | 0.0 | 0.0 | 0.00 | 0.00 | 0.00 | 86 | 1023.7 |
| 20260906053854 | 56 | 180 | 0.0 | 0.0 | 0.00 | 0.00 | 0.00 | 86 | 1023.7 |
| 20260906053354 | 56 | 180 | 0.0 | 0.0 | 0.00 | 0.00 | 0.00 | 85 | 1023.6 |
| 20260906052853 | 56 | 180 | 0.0 | 0.0 | 0.00 | 0.00 | 0.00 | 85 | 1023.7 |
| 20260906052353 | 57 | 180 | 0.0 | 0.0 | 0.00 | 0.00 | 0.00 | 85 | 1023.6 |
| 20260906051853 | 57 | 180 | 0.0 | 0.0 | 0.00 | 0.00 | 0.00 | 85 | 1023.7 |
| 20260906051353 | 57 | 180 | 0.0 | 0.0 | 0.00 | 0.00 | 0.00 | 85 | 1024.0 |
| 20260906050852 | 57 | 180 | 0.0 | 0.0 | 0.00 | 0.00 | 0.00 | 84 | 1023.8 |
| 20260906050407 | 57 | 180 | 0.0 | 0.0 | 0.00 | 0.00 | 0.00 | 84 | 1024.0 |
| 20260906045856 | 57 | 180 | 0.0 | 0.0 | 0.00 | 0.00 | 0.00 | 84 | 1023.9 |
| 20260906045356 | 57 | 180 | 0.0 | 0.0 | 0.00 | 0.00 | 0.00 | 84 | 1023.8 |
| 20260906044910 | 57 | 180 | 0.0 | 0.0 | 0.00 | 0.00 | 0.00 | 85 | 1023.9 |
| 20260906044400 | 57 | 180 | 0.0 | 0.0 | 0.00 | 0.00 | 0.00 | 84 | 1024.0 |
| 20260906043900 | 57 | 180 | 0.0 | 0.0 | 0.00 | 0.00 | 0.00 | 84 | 1023.8 |
| 20260906043359 | 57 | 180 | 0.0 | 0.0 | 0.00 | 0.00 | 0.00 | 84 | 1024.0 |
| 20260906042859 | 56 | 180 | 0.0 | 0.0 | 0.00 | 0.00 | 0.00 | 85 | 1024.0 |
| 20260906042358 | 57 | 180 | 0.0 | 0.0 | 0.00 | 0.00 | 0.00 | 85 | 1023.9 |
| 20260906041855 | 57 | 180 | 0.0 | 0.0 | 0.00 | 0.00 | 0.00 | 85 | 1024.0 |
| 20260906041355 | 57 | 180 | 0.0 | 0.0 | 0.00 | 0.00 | 0.00 | 84 | 1024.0 |
| 20260906040910 | 56 | 180 | 0.0 | 0.0 | 0.00 | 0.00 | 0.00 | 84 | 1024.0 |
| 20260906040400 | 56 | 180 | 0.0 | 0.0 | 0.00 | 0.00 | 0.00 | 84 | 1024.1 |
| 20260906035857 | 56 | 180 | 0.0 | 0.0 | 0.00 | 0.00 | 0.00 | 83 | 1024.2 |
| 20260906035357 | 57 | 292 | 0.0 | 0.0 | 0.00 | 0.00 | 0.00 | 83 | 1024.1 |
| 20260906034857 | 57 | 292 | 0.0 | 0.0 | 0.00 | 0.00 | 0.00 | 83 | 1024.2 |
| 20260906034356 | 57 | 267 | 0.0 | 0.0 | 0.00 | 0.00 | 0.00 | 83 | 1024.2 |
| 20260906033856 | 57 | 267 | 0.0 | 0.0 | 0.00 | 0.00 | 0.00 | 83 | 1024.2 |
| 20260906033355 | 57 | 267 | 0.0 | 0.0 | 0.00 | 0.00 | 0.00 | 83 | 1024.2 |
| 20260906032852 | 57 | 267 | 1.0 | 2.0 | 0.00 | 0.00 | 0.00 | 82 | 1024.4 |
| 20260906032406 | 57 | 225 | 0.0 | 0.0 | 0.00 | 0.00 | 0.00 | 82 | 1024.5 |
| 20260906031906 | 57 | 225 | 1.0 | 2.0 | 0.00 | 0.00 | 0.00 | 82 | 1024.4 |
| 20260906031406 | 57 | 225 | 0.0 | 0.0 | 0.00 | 0.00 | 0.00 | 82 | 1024.5 |
| 20260906030905 | 57 | 225 | 0.0 | 0.0 | 0.00 | 0.00 | 0.00 | 82 | 1024.5 |
| 20260906030355 | 57 | 225 | 0.0 | 0.0 | 0.00 | 0.00 | 0.00 | 82 | 1024.6 |
| 20260906025855 | 57 | 225 | 0.0 | 1.0 | 0.00 | 0.00 | 0.00 | 81 | 1024.7 |
| 20260906025354 | 57 | 225 | 0.0 | 1.0 | 0.00 | 0.00 | 0.00 | 81 | 1024.6 |
| 20260906024853 | 56 | 225 | 1.0 | 2.0 | 0.00 | 0.00 | 0.00 | 81 | 1024.5 |
| 20260906024353 | 57 | 180 | 0.0 | 0.0 | 0.00 | 0.00 | 0.00 | 81 | 1024.5 |
| 20260906023408 | 57 | 180 | 0.0 | 0.0 | 0.00 | 0.00 | 0.00 | 81 | 1024.6 |
| 20260906022907 | 57 | 180 | 0.0 | 0.0 | 0.00 | 0.00 | 0.00 | 81 | 1024.6 |
| 20260906022351 | 57 | 180 | 0.0 | 0.0 | 0.00 | 0.00 | 0.00 | 81 | 1024.6 |
| 20260906021906 | 57 | 180 | 0.0 | 1.0 | 0.00 | 0.00 | 0.00 | 81 | 1024.6 |
| 20260906021406 | 57 | 180 | 0.0 | 0.0 | 0.00 | 0.00 | 0.00 | 81 | 1024.9 |
| 20260906020906 | 57 | 180 | 0.0 | 1.0 | 0.00 | 0.00 | 0.00 | 80 | 1024.9 |
| 20260906020405 | 57 | 180 | 0.0 | 0.0 | 0.00 | 0.00 | 0.00 | 80 | 1024.9 |
| 20260906015904 | 56 | 180 | 0.0 | 1.0 | 0.00 | 0.00 | 0.00 | 80 | 1025.0 |
| 20260906014904 | 56 | 180 | 0.0 | 0.0 | 0.00 | 0.00 | 0.00 | 79 | 1025.2 |
| 20260906014403 | 56 | 180 | 0.0 | 1.0 | 0.00 | 0.00 | 0.00 | 79 | 1025.2 |
| 20260906013903 | 56 | 180 | 0.0 | 0.0 | 0.00 | 0.00 | 0.00 | 80 | 1025.4 |
| 20260906012903 | 56 | 180 | 0.0 | 0.0 | 0.00 | 0.00 | 0.00 | 80 | 1025.3 |
| 20260906012402 | 56 | 180 | 0.0 | 1.0 | 0.00 | 0.00 | 0.00 | 80 | 1025.6 |
| 20260906011402 | 56 | 180 | 0.0 | 0.0 | 0.00 | 0.00 | 0.00 | 81 | 1025.8 |
| 20260906010902 | 56 | 180 | 0.0 | 0.0 | 0.00 | 0.00 | 0.00 | 81 | 1025.7 |
| 20260906010401 | 56 | 180 | 0.0 | 0.0 | 0.00 | 0.00 | 0.00 | 80 | 1025.7 |
| 20260906005901 | 56 | 180 | 0.0 | 0.0 | 0.00 | 0.00 | 0.00 | 80 | 1025.7 |
| 20260906005400 | 56 | 180 | 0.0 | 0.0 | 0.00 | 0.00 | 0.00 | 80 | 1025.7 |
| 20260906004359 | 56 | 180 | 0.0 | 0.0 | 0.00 | 0.00 | 0.00 | 80 | 1025.8 |
| 20260906003414 | 56 | 225 | 0.0 | 0.0 | 0.00 | 0.00 | 0.00 | 80 | 1025.7 |
| 20260906002858 | 57 | 225 | 0.0 | 1.0 | 0.00 | 0.00 | 0.00 | 79 | 1025.5 |
| 20260906002358 | 57 | 225 | 0.0 | 0.0 | 0.00 | 0.00 | 0.00 | 78 | 1025.8 |
| 20260906001857 | 57 | 225 | 0.0 | 0.0 | 0.00 | 0.00 | 0.00 | 79 | 1025.7 |
| 20260906001356 | 57 | 225 | 1.0 | 1.0 | 0.00 | 0.00 | 0.00 | 78 | 1025.8 |
| 20260906000356 | 57 | 180 | 0.0 | 0.0 | 0.00 | 0.00 | 0.00 | 78 | 1026.1 |
| 20260905235856 | 57 | 180 | 0.0 | 0.0 | 0.00 | 0.00 | 0.00 | 78 | 1026.2 |
| 20260905234855 | 56 | 180 | 0.0 | 0.0 | 0.00 | 0.00 | 0.00 | 78 | 1026.1 |
| 20260905234355 | 56 | 180 | 0.0 | 0.0 | 0.00 | 0.00 | 0.00 | 78 | 1026.1 |
| 20260905233410 | 56 | 180 | 0.0 | 0.0 | 0.00 | 0.00 | 0.00 | 77 | 1026.4 |
| 20260905232909 | 56 | 180 | 0.0 | 0.0 | 0.00 | 0.00 | 0.00 | 77 | 1026.0 |
| 20260905232358 | 56 | 180 | 0.0 | 0.0 | 0.00 | 0.00 | 0.00 | 76 | 1026.3 |
| 20260905231858 | 56 | 180 | 0.0 | 0.0 | 0.00 | 0.00 | 0.00 | 76 | 1026.2 |
| 20260905230913 | 57 | 180 | 0.0 | 0.0 | 0.00 | 0.00 | 0.00 | 75 | 1026.1 |
| 20260905230402 | 57 | 180 | 0.0 | 0.0 | 0.00 | 0.00 | 0.00 | 74 | 1026.0 |
| 20260905225402 | 57 | 180 | 0.0 | 1.0 | 0.00 | 0.00 | 0.00 | 74 | 1026.0 |
| 20260905224902 | 58 | 315 | 0.0 | 0.0 | 0.00 | 0.00 | 0.00 | 72 | 1026.0 |
| 20260905224401 | 58 | 315 | 0.0 | 0.0 | 0.00 | 0.00 | 0.00 | 72 | 1026.1 |
| 20260905223900 | 58 | 315 | 0.0 | 0.0 | 0.00 | 0.00 | 0.00 | 71 | 1025.9 |
| 20260905222900 | 58 | 315 | 0.0 | 1.0 | 0.00 | 0.00 | 0.00 | 72 | 1026.0 |
| 20260905222358 | 58 | 315 | 1.0 | 2.0 | 0.00 | 0.00 | 0.00 | 73 | 1026.1 |
| 20260905221413 | 58 | 180 | 0.0 | 0.0 | 0.00 | 0.00 | 0.00 | 74 | 1026.0 |
| 20260905220857 | 57 | 180 | 0.0 | 0.0 | 0.00 | 0.00 | 0.00 | 73 | 1026.4 |
| 20260905220357 | 57 | 180 | 0.0 | 0.0 | 0.00 | 0.00 | 0.00 | 74 | 1026.1 |
| 20260905215856 | 58 | 180 | 0.0 | 0.0 | 0.00 | 0.00 | 0.00 | 73 | 1026.0 |
| 20260905215356 | 58 | 180 | 0.0 | 0.0 | 0.00 | 0.00 | 0.00 | 73 | 1026.1 |
| 20260905214855 | 58 | 180 | 0.0 | 0.0 | 0.00 | 0.00 | 0.00 | 73 | 1025.9 |
| 20260905214410 | 58 | 180 | 0.0 | 0.0 | 0.00 | 0.00 | 0.00 | 73 | 1026.0 |
| 20260905213415 | 59 | 180 | 0.0 | 1.0 | 0.00 | 0.00 | 0.00 | 72 | 1026.0 |
| 20260905212904 | 59 | 180 | 0.0 | 0.0 | 0.00 | 0.00 | 0.00 | 72 | 1026.1 |
| 20260905212354 | 59 | 180 | 0.0 | 1.0 | 0.00 | 0.00 | 0.00 | 72 | 1026.0 |
| 20260905211854 | 59 | 225 | 0.0 | 1.0 | 0.00 | 0.00 | 0.00 | 72 | 1026.2 |
| 20260905211354 | 59 | 225 | 0.0 | 0.0 | 0.00 | 0.00 | 0.00 | 71 | 1026.0 |
| 20260905210908 | 59 | 225 | 0.0 | 0.0 | 0.00 | 0.00 | 0.00 | 71 | 1026.0 |
| 20260905210407 | 59 | 225 | 0.0 | 0.0 | 0.00 | 0.00 | 0.00 | 70 | 1025.9 |
| 20260905205907 | 59 | 225 | 0.0 | 1.0 | 0.00 | 0.00 | 0.00 | 71 | 1026.0 |
| 20260905205407 | 59 | 225 | 1.0 | 2.0 | 0.00 | 0.00 | 0.00 | 71 | 1025.9 |
| 20260905204906 | 60 | 225 | 0.0 | 0.0 | 0.00 | 0.00 | 0.00 | 70 | 1025.7 |
| 20260905204406 | 60 | 225 | 0.0 | 1.0 | 0.00 | 0.00 | 0.00 | 70 | 1025.7 |
| 20260905203905 | 60 | 225 | 0.0 | 1.0 | 0.00 | 0.00 | 0.00 | 70 | 1025.8 |
| 20260905203409 | 60 | 225 | 0.0 | 0.0 | 0.00 | 0.00 | 0.00 | 68 | 1025.8 |
| 20260905202914 | 60 | 225 | 1.0 | 2.0 | 0.00 | 0.00 | 0.00 | 66 | 1025.9 |
| 20260905202403 | 60 | 225 | 0.0 | 1.0 | 0.00 | 0.00 | 0.00 | 67 | 1025.8 |
| 20260905201903 | 61 | 225 | 0.0 | 0.0 | 0.00 | 0.00 | 0.00 | 67 | 1026.0 |
| 20260905201403 | 61 | 225 | 0.0 | 1.0 | 0.00 | 0.00 | 0.00 | 68 | 1025.8 |
| 20260905200902 | 61 | 225 | 1.0 | 2.0 | 0.00 | 0.00 | 0.00 | 66 | 1025.9 |
| 20260905200402 | 61 | 180 | 0.0 | 0.0 | 0.00 | 0.00 | 0.00 | 64 | 1026.0 |
| 20260905195901 | 61 | 180 | 0.0 | 0.0 | 0.00 | 0.00 | 0.00 | 64 | 1025.9 |
| 20260905195401 | 62 | 180 | 0.0 | 1.0 | 0.00 | 0.00 | 0.00 | 64 | 1025.8 |
| 20260905194900 | 62 | 180 | 0.0 | 0.0 | 0.00 | 0.00 | 0.00 | 63 | 1025.8 |
| 20260905194400 | 62 | 180 | 0.0 | 1.0 | 0.00 | 0.00 | 0.00 | 63 | 1025.9 |
| 20260905193859 | 62 | 180 | 0.0 | 0.0 | 0.00 | 0.00 | 0.00 | 64 | 1025.9 |
| 20260905193359 | 62 | 180 | 0.0 | 1.0 | 0.00 | 0.00 | 0.00 | 64 | 1026.0 |
| 20260905192858 | 62 | 180 | 0.0 | 1.0 | 0.00 | 0.00 | 0.00 | 63 | 1025.9 |
| 20260905192412 | 63 | 180 | 0.0 | 0.0 | 0.00 | 0.00 | 0.00 | 62 | 1025.7 |
| 20260905191902 | 63 | 225 | 0.0 | 1.0 | 0.00 | 0.00 | 0.00 | 62 | 1025.5 |